Location: Arcadia
(34.1397°N, 118.0353°W)
Time: 00:14:55
(UTC+00:00)

Cosmos 1934 Rocket - Pass Details

Date: 08 September 2024
Orbit: 938 x 997 km, 83.0° (Epoch: 13 October)

Event Time Altitude Azimuth Distance (km) Brightness Sun altitude
Rises 11:58:19 0° 355° (N) 3,684 7.2 -19.4°
Reaches altitude 10° 12:00:50 10° 357° (N) 2,741 6.6 -18.9°
Maximum altitude 12:07:08 76° 84° (E) 1,022 4.2 -17.7°
Drops below altitude 10° 12:13:28 10° 169° (S) 2,752 6.3 -16.4°
Sets 12:16:00 0° 171° (S) 3,700 6.9 -15.9°
